Eugene, OR

2:04 AM PST on November 20, 2019 (GMT -0800)
Mahlon Sweet

Weather History for KEUG - September, 2019

Change the Weather History Date:

Wednesday, September 4, 2019

  Actual Average Record
Temperature  
Mean Temperature 66 °F 65 °F  
Max Temperature 83 °F 80 °F 97 °F (1955)
Min Temperature 49 °F 49 °F 40 °F (1980)
Degree Days  
Heating Degree Days 0 2  
Month to date heating degree days 0 8  
Since 1 July heating degree days 12 75  
Cooling Degree Days 1 2  
Month to date cooling degree days 20 8  
Year to date cooling degree days 328 216  
Growing Degree Days 15 (Base 50)    
Moisture  
Dew Point 53 °F    
Average Humidity 65    
Maximum Humidity 93    
Minimum Humidity 36    
Precipitation  
Precipitation 0.00 in 0.04 in 0.43 in (1996)
Month to date precipitation 0.00 0.13  
Year to date precipitation 23.21 26.14  
Sea Level Pressure  
Sea Level Pressure 30.00 in    
Wind  
Wind Speed 8 mph (North)    
Max Wind Speed 17 mph    
Max Gust Speed 21 mph    
Visibility 10 miles    
Events      
T = Trace of Precipitation, MM = Missing Value Source: NWS Daily Summary

Daily Weather History Graph

Daily Weather History Graph

Search for Another Location

Airport or City:

Astronomy

Sep. 04, 2019 Rise Set
Actual Time 6:39 AM PDT 7:43 PM PDT
Civil Twilight 6:09 AM PDT 8:13 PM PDT
Nautical Twilight 5:34 AM PDT 8:48 PM PDT
Astronomical Twilight 4:56 AM PDT 9:25 PM PDT
Moon 12:59 PM PDT (9/4) 11:08 PM PDT (9/4)
Length of Visible Light 14h 03m
Length of Day
13h 04m
Waxing Crescent, 36% of the Moon is Illuminated
Sep 4
Waxing Crescent
Sep 5
First Quarter
Sep 13
Full
Sep 21
Last Quarter
Sep 28
New

Hourly Weather History & Observations

Time (PDT) Temp. Heat Index Dew Point Humidity Pressure Visibility Wind Dir Wind Speed Gust Speed Precip Events Conditions
12:54 AM 59.0 °F - 52.0 °F 78% 30.05 in 10.0 mi Calm Calm - N/A   Clear
1:54 AM 55.9 °F - 50.0 °F 80% 30.05 in 10.0 mi Calm Calm - N/A   Clear
2:54 AM 53.1 °F - 50.0 °F 89% 30.05 in 10.0 mi Calm Calm - N/A   Clear
3:54 AM 53.1 °F - 48.9 °F 86% 30.05 in 10.0 mi NW 3.5 mph - N/A   Clear
4:54 AM 53.1 °F - 48.9 °F 86% 30.04 in 10.0 mi Calm Calm - N/A   Clear
5:25 AM 50.0 °F - 46.9 °F 89% 30.04 in 10.0 mi Calm Calm - N/A   Mostly Cloudy
5:54 AM 54.0 °F - 52.0 °F 93% 30.05 in 10.0 mi Calm Calm - N/A   Overcast
6:54 AM 57.9 °F - 53.1 °F 84% 30.04 in 10.0 mi NNW 3.5 mph - N/A   Overcast
7:54 AM 61.0 °F - 55.0 °F 81% 30.05 in 10.0 mi North 9.2 mph - N/A   Overcast
8:54 AM 63.0 °F - 55.0 °F 75% 30.05 in 10.0 mi North 11.5 mph - N/A   Overcast
9:33 AM 64.0 °F - 55.0 °F 73% 30.06 in 10.0 mi NNE 13.8 mph - N/A   Overcast
9:51 AM 64.4 °F - 55.4 °F 73% 30.06 in 10.0 mi NNE 11.5 mph - N/A   Overcast
9:54 AM 64.0 °F - 55.9 °F 75% 30.06 in 10.0 mi North 12.7 mph - N/A   Overcast
10:13 AM 64.0 °F - 55.0 °F 73% 30.06 in 10.0 mi NNE 13.8 mph - N/A   Overcast
10:54 AM 64.9 °F - 55.0 °F 70% 30.06 in 10.0 mi NNE 12.7 mph - N/A   Overcast
11:54 AM 68.0 °F - 55.9 °F 65% 30.04 in 10.0 mi NNE 12.7 mph - N/A   Overcast
12:24 PM 71.1 °F - 55.9 °F 59% 30.03 in 10.0 mi North 12.7 mph - N/A   Scattered Clouds
12:54 PM 72.0 °F - 55.9 °F 57% 30.02 in 10.0 mi North 11.5 mph 18.4 mph N/A   Partly Cloudy
1:54 PM 77.0 °F - 55.9 °F 48% 29.99 in 10.0 mi North 13.8 mph 17.3 mph N/A   Clear
2:54 PM 79.0 °F - 55.9 °F 45% 29.96 in 10.0 mi NNE 13.8 mph - N/A   Clear
3:54 PM 82.0 °F 81.4 °F 55.0 °F 39% 29.94 in 10.0 mi NNE 13.8 mph 19.6 mph N/A   Clear
4:54 PM 82.0 °F 81.3 °F 54.0 °F 38% 29.93 in 10.0 mi North 15.0 mph 18.4 mph N/A   Clear
5:54 PM 82.0 °F 81.2 °F 53.1 °F 37% 29.91 in 10.0 mi NNE 13.8 mph - N/A   Clear
6:54 PM 80.1 °F - 52.0 °F 38% 29.91 in 10.0 mi North 11.5 mph - N/A   Partly Cloudy
7:54 PM 73.0 °F - 51.1 °F 46% 29.92 in 10.0 mi NNE 9.2 mph - N/A   Partly Cloudy
8:54 PM 66.9 °F - 48.9 °F 52% 29.92 in 10.0 mi NNE 8.1 mph - N/A   Clear
9:54 PM 66.0 °F - 48.0 °F 52% 29.93 in 10.0 mi NNW 8.1 mph - N/A   Clear
10:54 PM 64.0 °F - 48.0 °F 56% 29.93 in 10.0 mi North 5.8 mph - N/A   Clear
11:54 PM 62.1 °F - 50.0 °F 65% 29.93 in 10.0 mi North 6.9 mph - N/A   Clear